This is the latest recevied weather packets stored in our database for station/object E23XBQ-1. If no packets are shown the sender has not sent any weather packets the latest 10 day(s).
| Time | Temp. | Humidity | Pressure | Rain* | Wind** | Luminosity | Snow |
|---|---|---|---|---|---|---|---|
| 1778159396 | 28.89° C | 78% | 969 hPa | - | - | 0 W/m² | - |
| 1778158770 | 28.89° C | 77% | 969 hPa | - | - | 0 W/m² | - |
| 1778158143 | 29.44° C | 77% | 969 hPa | - | - | 0 W/m² | - |
| 1778157518 | 29.44° C | 73% | 969 hPa | - | - | 0 W/m² | - |
| 1778156892 | 30° C | 80% | 969 hPa | - | - | 0 W/m² | - |
| 1778156255 | 30° C | 76% | 968 hPa | - | - | 0 W/m² | - |
| 1778155627 | 30° C | 72% | 968 hPa | - | - | 0 W/m² | - |
| 1778154999 | 30.56° C | 71% | 967 hPa | - | - | 0 W/m² | - |
| 1778154375 | 31.11° C | 66% | 967 hPa | - | - | 0 W/m² | - |
| 1778153750 | 31.11° C | 60% | 967 hPa | - | - | 0 W/m² | - |
| 1778153126 | 31.11° C | 57% | 967 hPa | - | - | 0 W/m² | - |
| 1778152500 | 31.67° C | 57% | 967 hPa | - | - | 0 W/m² | - |
| 1778151874 | 32.22° C | 57% | 967 hPa | - | - | 0 W/m² | - |
| 1778151249 | 32.22° C | 62% | 966 hPa | - | - | 0 W/m² | - |
| 1778150625 | 31.67° C | 66% | 966 hPa | - | - | 0 W/m² | - |
| 1778150000 | 31.67° C | 56% | 966 hPa | - | - | 0 W/m² | - |
| 1778149375 | 32.22° C | 52% | 966 hPa | - | - | 0 W/m² | - |
| 1778148749 | 32.22° C | 53% | 966 hPa | - | - | 0 W/m² | - |
| 1778148125 | 32.22° C | 54% | 966 hPa | - | - | 0 W/m² | - |
| 1778147501 | 31.11° C | 56% | 966 hPa | - | - | 0 W/m² | - |
| 1778146875 | 31.11° C | 65% | 966 hPa | - | - | 0 W/m² | - |
| 1778146250 | 30.56° C | 55% | 967 hPa | - | - | 0 W/m² | - |
| 1778145626 | 30.56° C | 54% | 967 hPa | - | - | 0 W/m² | - |
| 1778145001 | 31.67° C | 51% | 967 hPa | - | - | 0 W/m² | - |
| 1778144376 | 32.78° C | 49% | 967 hPa | - | - | 0 W/m² | - |
* Rain since midnight (hover to see other rain measurements)
** Current wind speed in m/s (hover to see current wind gust speed)